Satellite: ORSTED
Catalog number: 25635
Epoch time:      103066.49507884
Element set:     848 
Inclination:       96.4524 deg
RA of node:        48.6802 deg
Eccentricity:    0.0143682
Arg of perigee:   275.7049 deg
Mean anomaly:      82.7781 deg
Mean motion:   14.44872656 rev/day
Decay rate:    1.0069E-005 rev/day^2
Epoch rev:           21238
Checksum:              341

Satellite: SUNSAT
Catalog number: 25636
Epoch time:      103064.97273720
Element set:     727 
Inclination:       96.4556 deg
RA of node:        46.1468 deg
Eccentricity:    0.0147837
Arg of perigee:   287.2192 deg
Mean anomaly:      71.2867 deg
Mean motion:   14.42969231 rev/day
Decay rate:    4.1100E-006 rev/day^2
Epoch rev:           21203
Checksum:              312

Satellite: UOSAT 12
Catalog number: 25693
Epoch time:      103066.48413100
Element set:     765 
Inclination:       64.5609 deg
RA of node:       319.0139 deg
Eccentricity:    0.0021757
Arg of perigee:   314.8544 deg
Mean anomaly:      45.0791 deg
Mean motion:   14.76410375 rev/day
Decay rate:    8.3900E-006 rev/day^2
Epoch rev:           20875
Checksum:              309

Satellite: FENGYUN 1C
Catalog number: 25730
Epoch time:      103065.88334892
Element set:     781 
Inclination:       98.6330 deg
RA of node:        89.6717 deg
Eccentricity:    0.0013821
Arg of perigee:   319.2949 deg
Mean anomaly:      40.7189 deg
Mean motion:   14.11736560 rev/day
Decay rate:    1.0400E-006 rev/day^2
Epoch rev:           19693
Checksum:              322

Satellite: ASTRA 1H
Catalog number: 25785
Epoch time:      103064.00000000
Element set:     374 
Inclination:        0.0122 deg
RA of node:       319.8851 deg
Eccentricity:    0.0002995
Arg of perigee:    65.1991 deg
Mean anomaly:     156.4596 deg
Mean motion:    1.00273184 rev/day
Decay rate:    1.1099E-006 rev/day^2
Epoch rev:            1364
Checksum:              262

Satellite: TERRA
Catalog number: 25994
Epoch time:      103066.27380572
Element set:     759 
Inclination:       98.1938 deg
RA of node:       142.2345 deg
Eccentricity:    0.0000768
Arg of perigee:    56.6671 deg
Mean anomaly:     303.3790 deg
Mean motion:   14.57072292 rev/day
Decay rate:   -3.6684E-004 rev/day^2
Epoch rev:           17110
Checksum:              327

Satellite: JAWSAT
Catalog number: 26061
Epoch time:      103066.21039560
Element set:     781 
Inclination:      100.2024 deg
RA of node:       126.3622 deg
Eccentricity:    0.0034856
Arg of perigee:   232.1255 deg
Mean anomaly:     127.6774 deg
Mean motion:   14.37842720 rev/day
Decay rate:    5.4799E-006 rev/day^2
Epoch rev:           16292
Checksum:              290

Satellite: OPAL
Catalog number: 26063
Epoch time:      103065.72585034
Element set:     735 
Inclination:      100.2064 deg
RA of node:       123.2313 deg
Eccentricity:    0.0036684
Arg of perigee:   241.3879 deg
Mean anomaly:     118.3608 deg
Mean motion:   14.35487186 rev/day
Decay rate:    1.3699E-006 rev/day^2
Epoch rev:           16270
Checksum:              302

Satellite: ASUSAT
Catalog number: 26065
Epoch time:      103065.89150479
Element set:     749 
Inclination:      100.2092 deg
RA of node:       123.5842 deg
Eccentricity:    0.0036942
Arg of perigee:   241.6405 deg
Mean anomaly:     118.1047 deg
Mean motion:   14.35515489 rev/day
Decay rate:    1.6599E-006 rev/day^2
Epoch rev:           16272
Checksum:              408

Satellite: GOES 11
Catalog number: 26352
Epoch time:      103066.37437532
Element set:     54 
Inclination:        0.1822 deg
RA of node:       101.9592 deg
Eccentricity:    0.0003089
Arg of perigee:   211.6001 deg
Mean anomaly:     232.1327 deg
Mean motion:    1.00267056 rev/day
Decay rate:   -3.1999E-007 rev/day^2
Epoch rev:            1040
Checksum:              356

Satellite: EUTELSAT W4
Catalog number: 26369
Epoch time:      103063.85881946
Element set:     357 
Inclination:        0.0441 deg
RA of node:       354.3791 deg
Eccentricity:    0.0002955
Arg of perigee:   349.2827 deg
Mean anomaly:     163.7550 deg
Mean motion:    1.00272136 rev/day
Decay rate:    1.4600E-006 rev/day^2
Epoch rev:            1019
Checksum:              289

Satellite: FENGYUN 2B
Catalog number: 26382
Epoch time:      103065.23994156
Element set:     806 
Inclination:        0.5377 deg
RA of node:       289.7498 deg
Eccentricity:    0.0001675
Arg of perigee:   203.4197 deg
Mean anomaly:     221.1876 deg
Mean motion:    1.00268389 rev/day
Decay rate:   -3.3300E-006 rev/day^2
Epoch rev:             986
Checksum:              316

Satellite: EUTELSAT W1
Catalog number: 26487
Epoch time:      103065.89376720
Element set:     366 
Inclination:        0.0274 deg
RA of node:       285.7402 deg
Eccentricity:    0.0003825
Arg of perigee:    55.4199 deg
Mean anomaly:     154.7436 deg
Mean motion:    1.00274466 rev/day
Decay rate:    6.6000E-007 rev/day^2
Epoch rev:             918
Checksum:              297

Satellite: ASTRA 2B
Catalog number: 26494
Epoch time:      103064.00000000
Element set:     257 
Inclination:        0.0178 deg
RA of node:       354.5658 deg
Eccentricity:    0.0005000
Arg of perigee:   302.8402 deg
Mean anomaly:     253.0807 deg
Mean motion:    1.00276704 rev/day
Decay rate:    1.4099E-006 rev/day^2
Epoch rev:             906
Checksum:              235

Satellite: NOAA 16
Catalog number: 26536
Epoch time:      103066.37699345
Element set:     236 
Inclination:       98.9063 deg
RA of node:        14.5394 deg
Eccentricity:    0.0009729
Arg of perigee:   258.8073 deg
Mean anomaly:     101.2018 deg
Mean motion:   14.11913455 rev/day
Decay rate:    5.1000E-007 rev/day^2
Epoch rev:           12652
Checksum:              413

Satellite: SAUDISAT 1A
Catalog number: 26545
Epoch time:      103064.89480748
Element set:     421 
Inclination:       64.5615 deg
RA of node:       344.8182 deg
Eccentricity:    0.0051148
Arg of perigee:   236.1858 deg
Mean anomaly:     123.4373 deg
Mean motion:   14.79019562 rev/day
Decay rate:    1.3930E-005 rev/day^2
Epoch rev:           13149
Checksum:              315

Satellite: UNISAT
Catalog number: 26547
Epoch time:      103066.02199659
Element set:     440 
Inclination:       64.5600 deg
RA of node:       343.5222 deg
Eccentricity:    0.0058236
Arg of perigee:   237.9216 deg
Mean anomaly:     121.6236 deg
Mean motion:   14.79818089 rev/day
Decay rate:    2.7410E-005 rev/day^2
Epoch rev:           13162
Checksum:              301

Satellite: TIUNGSAT 1
Catalog number: 26548
Epoch time:      103066.24380021
Element set:     424 
Inclination:       64.5598 deg
RA of node:       333.3755 deg
Eccentricity:    0.0044265
Arg of perigee:   235.4169 deg
Mean anomaly:     124.2769 deg
Mean motion:   14.81328558 rev/day
Decay rate:    2.3320E-005 rev/day^2
Epoch rev:           13183
Checksum:              303

Satellite: SAUDISAT 1B
Catalog number: 26549
Epoch time:      103065.88921692
Element set:     709 
Inclination:       64.5509 deg
RA of node:       345.9564 deg
Eccentricity:    0.0055533
Arg of perigee:   235.9726 deg
Mean anomaly:     123.6106 deg
Mean motion:   14.77957191 rev/day
Decay rate:    1.3070E-005 rev/day^2
Epoch rev:           13155
Checksum:              331

Satellite: AMSAT OSCAR 40
Catalog number: 26609
Epoch time:      103066.11783278
Element set:     314 
Inclination:        8.2200 deg
RA of node:        61.4070 deg
Eccentricity:    0.7949170
Arg of perigee:   150.5515 deg
Mean anomaly:     300.1580 deg
Mean motion:    1.25596136 rev/day
Decay rate:   -2.4399E-006 rev/day^2
Epoch rev:            1079
Checksum:              287

Satellite: GOES 12
Catalog number: 26871
Epoch time:      103063.17432264
Element set:     852 
Inclination:        0.2930 deg
RA of node:       276.3055 deg
Eccentricity:    0.0002177
Arg of perigee:    31.1799 deg
Mean anomaly:     186.6507 deg
Mean motion:    1.00358663 rev/day
Decay rate:   -2.0200E-006 rev/day^2
Epoch rev:             597
Checksum:              278

Satellite: PCSAT
Catalog number: 26931
Epoch time:      103066.53131737
Element set:     418 
Inclination:       67.0463 deg
RA of node:       211.9428 deg
Eccentricity:    0.0005194
Arg of perigee:   270.1017 deg
Mean anomaly:      89.9485 deg
Mean motion:   14.29123948 rev/day
Decay rate:    2.3400E-006 rev/day^2
Epoch rev:            7477
Checksum:              411

Satellite: SAPPHIRE
Catalog number: 26932
Epoch time:      103066.57723517
Element set:     413 
Inclination:       67.0527 deg
RA of node:       211.5251 deg
Eccentricity:    0.0004352
Arg of perigee:   247.4942 deg
Mean anomaly:     112.5698 deg
Mean motion:   14.29300118 rev/day
Decay rate:    1.0200E-006 rev/day^2
Epoch rev:            7480
Checksum:              377

Satellite: ENVISAT
Catalog number: 27386
Epoch time:      103065.89237530
Element set:     967 
Inclination:       98.5514 deg
RA of node:       134.2080 deg
Eccentricity:    0.0000989
Arg of perigee:    68.0967 deg
Mean anomaly:     292.0318 deg
Mean motion:   14.32245914 rev/day
Decay rate:   -2.8100E-006 rev/day^2
Epoch rev:            5308
Checksum:              316

Satellite: IDEFIX/ARIANE 
Catalog number: 27422
Epoch time:      103066.55915353
Element set:     249 
Inclination:       98.6933 deg
RA of node:       145.6801 deg
Eccentricity:    0.0013400
Arg of perigee:    99.2794 deg
Mean anomaly:     260.9903 deg
Mean motion:   14.27978041 rev/day
Decay rate:    2.3800E-006 rev/day^2
Epoch rev:            4388
Checksum:              322

